Location: �guilles
(43.5687°N, 5.3561°E)
Time: 14:18:20
(UTC+00:00)

Daily predictions for brighter satellites

Satellite Brightness Start Highest point End
(mag) Time Altitude Azimuth Time Altitude Azimuth Time Altitude Azimuth
Cosmos 2297 Rocket 3.6 16:57:56 10° SE 17:01:35 18° E 17:05:14 10° ENE
COBE Rocket 4.4 16:57:36 10° N 17:02:43 69° WNW 17:07:52 10° SSW
COSMO-SKYMED 1 3.7 16:59:21 10° NE 17:02:59 25° E 17:06:35 10° SSE
Starlink AQ 3.3 17:00:13 10° WSW 17:03:05 52° NNW 17:05:58 10° NE
Starlink AS 3.3 17:02:30 10° WSW 17:05:21 49° NNW 17:08:13 10° NE
Starlink BA 3.3 17:02:43 10° WSW 17:05:34 49° NNW 17:08:26 10° NE
Starlink AU 3.3 17:02:57 10° WSW 17:05:47 49° NNW 17:08:40 10° NE
Starlink AT 3.3 17:03:11 10° WSW 17:06:01 48° NNW 17:08:52 10° NE
Starlink BB 3.4 17:03:24 10° WSW 17:06:15 48° NNW 17:09:06 10° NE
Starlink BC 3.4 17:03:37 10° WSW 17:06:28 48° NNW 17:09:20 10° NE
H-2A R/B 2.8 17:02:47 10° SSE 17:06:36 86° WSW 17:10:30 10° NNW
Starlink BK 3.4 17:03:51 10° WSW 17:06:42 48° NNW 17:09:33 10° NE
Starlink AY 3.4 17:04:05 10° WSW 17:06:55 48° NNW 17:09:46 10° NE
Cosmos 2360 Rocket 3.7 17:01:45 10° NW 17:07:02 42° WSW 17:12:16 10° S
Starlink AW 3.4 17:04:18 10° WSW 17:07:09 47° NNW 17:10:00 10° NE
Starlink BJ 3.4 17:04:31 10° WSW 17:07:21 47° NNW 17:10:12 10° NE
Starlink AV 3.4 17:04:44 10° WSW 17:07:34 47° NNW 17:10:26 10° NE
Nadezhda 3 Rocket 4.2 17:01:31 10° N 17:07:36 49° ENE 17:13:42 10° SSE
Cosmos 1125 Rocket 3.8 17:02:48 10° S 17:07:47 49° ESE 17:12:48 10° NNE
Starlink BD 3.4 17:04:58 10° WSW 17:07:48 47° NNW 17:10:39 10° NE
Starlink BE 3.4 17:05:09 10° WSW 17:07:59 47° NNW 17:10:50 10° NE
Starlink BM 3.4 17:05:24 10° WSW 17:08:14 46° NNW 17:11:06 10° NE
Starlink AX 3.4 17:05:38 10° WSW 17:08:28 46° NNW 17:11:19 10° NE
Starlink BH 3.4 17:05:52 10° WSW 17:08:42 46° NNW 17:11:32 10° NE
Starlink AZ 3.4 17:06:04 10° WSW 17:08:54 46° NNW 17:11:45 10° NE
Starlink BG 3.4 17:06:18 10° WSW 17:09:08 46° NNW 17:11:58 10° NE
Starlink BF 3.4 17:06:31 10° WSW 17:09:21 45° NNW 17:12:12 10° NE
Starlink BL 3.5 17:06:44 10° WSW 17:09:33 45° NNW 17:12:24 10° NE
Starlink AH 3.5 17:06:58 10° WSW 17:09:48 45° NNW 17:12:38 10° NE
Starlink AC 3.5 17:07:12 10° WSW 17:10:01 45° NNW 17:12:52 10° NE
Okean-O 2.9 17:05:59 10° SE 17:10:13 47° ENE 17:14:29 10° N
Starlink X 3.5 17:07:25 10° WSW 17:10:15 45° NNW 17:13:05 10° NE
Starlink AE 3.5 17:07:37 10° WSW 17:10:26 44° NNW 17:13:16 10° NE
Starlink Z 3.5 17:07:54 10° WSW 17:10:43 44° NNW 17:13:34 10° NE
Starlink AK 3.5 17:08:07 10° WSW 17:10:56 44° NNW 17:13:45 10° NE
Starlink AL 3.5 17:08:19 10° WSW 17:11:09 44° NNW 17:13:59 10° NE
Starlink AD 3.5 17:08:33 10° WSW 17:11:23 44° NNW 17:14:12 10° NE
Starlink Y 3.5 17:09:01 10° WSW 17:11:50 43° NNW 17:14:39 10° NE
Starlink AG 3.5 17:09:16 10° WSW 17:12:04 43° NNW 17:14:54 10° NE
Starlink W 3.5 17:09:28 10° WSW 17:12:17 43° NNW 17:15:07 10° NE
Starlink AJ 3.5 17:09:41 10° WSW 17:12:30 43° NNW 17:15:20 10° NE
Okean O Rocket 3.8 17:08:54 10° SSW 17:12:50 31° W 17:16:48 10° NNW
Starlink AM 3.6 17:10:11 10° WSW 17:13:00 42° NNW 17:15:48 10° NE
Starlink AP 3.6 17:10:23 10° WSW 17:13:11 42° NNW 17:16:01 10° NE
Starlink AA 3.6 17:10:38 10° WSW 17:13:26 42° NNW 17:16:15 10° NE
Cosmos 2227 Rocket 3.5 17:09:35 10° SE 17:13:37 20° E 17:17:39 10° NE
Starlink AF 3.6 17:10:50 10° WSW 17:13:38 42° NNW 17:16:27 10° NE
Starlink AB 3.6 17:11:03 10° WSW 17:13:52 42° NNW 17:16:41 10° NE
Starlink AN 3.6 17:11:18 10° WSW 17:14:06 41° NNW 17:16:55 10° NE
Cosmos 1626 Rocket 3.5 17:10:20 10° S 17:14:37 64° E 17:18:54 10° NNE
Cosmos 2219 Rocket 2.2 17:09:08 10° NNW 17:14:51 79° ENE 17:20:30 10° SSE
NOSS 0 Rocket 4.1 17:09:10 10° NNW 17:15:14 49° ENE 17:21:13 10° SE
COSMOS 2428 2.7 17:11:25 10° NNW 17:17:12 80° ENE 17:22:57 10° SSE
Timation 2 Rocket 4.0 17:11:55 10° SSW 17:17:58 82° ESE 17:24:18 10° NNE
Envisat 3.0 17:15:06 10° SSE 17:20:09 72° ENE 17:25:14 10° N
Starlink T 3.8 17:20:34 10° W 17:23:19 35° NNW 17:25:51 12° NE
Starlink N 3.9 17:21:49 10° W 17:24:34 35° NNW 17:27:02 12° NE
ISS -1.4 17:24:11 10° SSE 17:25:26 12° SE 17:26:40 10° ESE
Starlink Q 3.9 17:23:22 10° W 17:26:06 34° NNW 17:28:32 12° NE
Cosmos 1269 Rocket 4.4 17:21:56 10° N 17:26:54 40° ENE 17:31:50 10° SE
Starlink P 4.0 17:24:44 10° W 17:27:27 33° NNW 17:29:49 12° NE
Cosmos 2341 Rocket 4.4 17:21:36 10° SSE 17:27:31 42° E 17:33:26 10° NNE
Starlink U 4.0 17:26:05 10° W 17:28:48 33° NNW 17:31:07 13° NE
CZ-4 R/B 1.9 17:25:15 10° SE 17:28:57 37° ENE 17:32:45 10° N
Cosmos 1048 Rocket 4.0 17:24:07 10° NNW 17:29:17 89° WSW 17:34:24 10° SSE
Starlink B 4.0 17:27:28 10° W 17:30:10 32° NNW 17:32:26 13° NE
Cosmos 1607 4.2 17:28:17 10° SW 17:34:23 68° NW 17:40:33 10° NNE
Cosmos 1825 Rocket 4.3 17:30:44 10° SSE 17:34:33 31° E 17:38:23 10° NNE
Starlink D 4.2 17:33:04 10° W 17:35:45 30° NNW 17:37:48 14° NNE
SJ 16-02 4.1 17:34:23 10° WNW 17:36:13 12° NW 17:38:03 10° NNW
Starlink S 4.2 17:34:31 10° W 17:37:11 29° NNW 17:39:11 15° NNE
ADEOS Rocket 4.2 17:32:47 10° NE 17:38:05 25° E 17:43:46 10° SE
Starlink C 4.2 17:35:55 10° W 17:38:34 29° NNW 17:40:31 15° NNE
Starlink E 4.3 17:37:22 10° W 17:40:02 28° NNW 17:41:54 15° NNE
Starlink J 4.3 17:38:50 10° W 17:41:28 28° NNW 17:43:17 16° NNE
Starlink V 4.3 17:40:16 10° W 17:42:54 27° NNW 17:44:39 16° NNE
Starlink H 4.3 17:41:45 10° W 17:44:21 27° NNW 17:46:03 16° NNE
Starlink F 4.4 17:43:13 10° W 17:45:49 26° NNW 17:47:28 17° NNE
Meteor 2-17 Rocket 4.4 17:40:01 10° S 17:46:06 71° E 17:52:13 10° NNE
Starlink G 4.4 17:44:41 10° W 17:47:16 26° NNW 17:48:51 17° NNE
Starlink L 4.4 17:46:09 10° W 17:48:44 25° NNW 17:50:15 17° NNE
CSL-04 Debris 4.3 17:44:44 10° SE 17:49:56 52° ENE 17:55:10 10° N
Starlink A 4.5 17:47:38 10° W 17:50:12 25° NNW 17:51:40 17° NNE
Meteor 2-10 Rocket 4.1 17:45:53 10° N 17:50:47 35° ENE 17:55:28 10° SE
ERBS 2.6 17:47:43 10° SSW 17:50:54 45° SE 17:52:10 29° ENE
SKYMED 2 3.5 17:46:49 10° NNE 17:51:11 83° ESE 17:55:31 10° SSW
Starlink R 4.5 17:49:08 10° W 17:51:41 25° NNW 17:53:05 18° NNE
Cosmos 724 4.3 17:51:16 10° SSW 17:57:12 69° ESE 18:01:55 16° NE
CZ-2D R/B 3.5 17:55:18 10° SE 17:58:55 43° ENE 18:02:34 10° N
USA 267 4.3 17:54:02 13° NE 17:59:10 34° NNW 18:04:53 10° WNW
Cosmos 2218 Rocket 4.3 17:54:46 10° SSE 18:00:43 46° E 18:06:46 10° NNE
Cosmos 1812 Rocket 4.2 17:59:14 10° NNW 18:03:38 59° W 18:08:02 10° S
Ariane Rocket 3.7 17:59:57 13° ESE 18:03:41 31° ENE 18:08:05 10° N
USA 116 3.2 18:02:58 32° NE 18:04:13 56° ESE 18:07:15 10° S
Shenzhou-11 Module 3.9 18:03:01 10° SSW 18:04:36 16° SSE 18:04:36 16° SSE
Cosmos 494 Rocket 4.1 18:00:09 10° NNW 18:05:17 77° WSW 18:10:23 10° SSE
Cosmos 2237 Rocket 2.1 17:59:47 10° NNW 18:05:26 76° ENE 18:11:03 10° SSE
Cosmos 2333 Rocket 3.7 18:00:34 10° NW 18:05:50 39° WSW 18:11:02 10° S
Cosmos 1300 4.4 18:03:15 10° NNW 18:06:45 35° W 18:10:14 10° SSW
Cosmos 1339 Rocket 4.5 18:02:16 10° N 18:08:13 54° ENE 18:14:11 10° SSE
Cosmos 1241 Rocket 4.4 18:02:07 10° NNW 18:08:22 89° SW 18:14:37 10° SSE
YAOGAN 1 2.4 18:05:48 10° SSE 18:10:07 83° ENE 18:14:29 10° NNW
H-2A R/B 3.9 18:15:09 13° NNE 18:15:09 13° NNE 18:15:58 10° NNE
Meteor 1-21 Rocket 4.1 18:09:05 10° S 18:14:39 88° E 18:20:22 10° N
Cosmos 1340 Rocket 4.2 18:12:37 10° NNW 18:16:20 40° W 18:20:03 10° SSW
Cosmos 1328 4.0 18:13:02 10° SSE 18:16:51 45° E 18:16:54 45° E
CSL-04 Rocket 3.6 18:12:55 10° SSE 18:18:24 89° ENE 18:23:59 10° NNW
Cosmos-2242 2.8 18:15:44 10° N 18:20:05 81° E 18:24:22 10° S
Cosmos 1455 2.0 18:19:11 10° N 18:22:59 65° E 18:26:45 10° SSE
NOSS 2-1 (C) 4.4 18:17:51 10° NNW 18:23:14 66° NE 18:29:26 15° SE
Cosmos 2251 Rocket 4.0 18:19:30 10° N 18:24:11 36° NE 18:24:11 36° NE
SL-16 R/B 2.5 18:20:45 10° NNW 18:26:10 44° ENE 18:27:14 39° E
NOSS 2-1 (D) 4.4 18:21:38 10° NNW 18:27:04 70° NE 18:33:20 15° SE
Cosmos 1959 Rocket 4.3 18:21:24 10° S 18:27:32 72° E 18:33:38 10° NNE
ATLAS 5 CENTAUR R/B 4.2 18:25:58 10° NW 18:27:54 12° NNW 18:29:55 10° N
Cosmos 2219 3.6 18:24:07 10° SW 18:29:40 64° WNW 18:34:24 15° NNE
DMSP B5D1-3 4.4 18:26:16 10° NNE 18:31:21 83° ESE 18:36:26 10° SSW
DELTA 2 R/B (1) 3.9 18:27:43 10° WSW 18:33:10 55° S 18:34:49 40° ESE
Cosmos 2082 3.7 18:27:53 10° S 18:33:20 55° ESE 18:34:40 45° ENE
Cosmos 1939 Rocket 3.1 18:32:33 10° S 18:36:24 66° W 18:40:20 10° NNW
Cosmos 2366 rocket 3.9 18:31:26 10° S 18:37:36 82° E 18:43:54 10° N
COSMO-SKYMED 1 4.4 18:35:19 10° N 18:39:08 31° WNW 18:42:56 10° SW
Cosmos 1953 Rocket 3.7 18:36:40 10° SSW 18:41:08 74° W 18:44:04 21° N
CZ-4C R/B 3.9 18:35:05 10° NW 18:42:11 48° WSW 18:50:03 10° S
BREEZE-M DEB (TANK) 4.3 18:42:44 10° W 18:43:51 25° W 18:43:51 25° W
Cosmos 2297 Rocket 2.4 18:39:22 10° SSW 18:44:59 68° WNW 18:48:25 24° NNE
Cosmos 2227 Rocket 2.6 18:51:34 10° SW 18:57:09 60° WNW 19:00:00 29° N
ATLAS CENTAUR R/B 3.9 18:54:29 10° NNW 18:54:50 12° NNW 18:54:50 12° NNW
ISS -1.5 18:58:21 10° SW 18:59:47 23° SW 18:59:47 23° SW
Cosmos 1703 4.2 18:59:05 10° SSW 19:02:18 46° WSW 19:02:18 46° WSW
Cosmos 1727 Rocket 3.9 18:57:36 10° N 19:03:50 87° W 19:10:00 10° S
CZ-4 R/B 4.2 19:01:16 10° SW 19:04:07 19° W 19:07:01 10° NW
BREEZE-M DEB (TANK) 4.3 18:48:18 10° W 19:04:08 55° N 19:05:05 50° NNE
Meteor 2-12 Rocket 4.3 19:09:22 10° S 19:15:26 89° E 19:15:29 88° NE
Cosmos 44 4.1 19:13:23 10° SW 19:16:42 43° WSW 19:16:42 43° WSW
Atlas Centaur 2 4.1 19:18:55 10° SSW 19:21:22 18° S 19:21:22 18° S
ADEOS Rocket 3.6 19:17:28 10° N 19:23:53 64° WNW 19:30:58 10° SSW
Ariane Rocket 4.4 19:40:06 22° SW 19:42:32 34° W 19:47:10 10° NNW
FALCON 9 R/B 4.2 19:35:50 10° SW 19:44:06 25° S 19:44:06 25° S
SL-16 R/B 4.0 20:05:16 10° NW 20:09:13 28° W 20:09:13 28° W
ATLAS 5 CENTAUR R/B 4.3 20:20:39 10° NW 20:55:43 10° SE 20:56:02 10° SE
